GW2897 Weather Reports


time (UTC)temp
C
wind
direction
speed
KPH
gust
KPH
rain 1hr
cm
rain 24hr
cm
rain mn
cm
humidity
%
barometer
mb
20260509024505 15 0 0.0 0.0 0.00 0.00 0.00 89 1014.3
20260509023604 15 120 0.0 1.6 0.00 0.00 0.00 89 1014.3
20260509022704 15 0 0.0 0.0 0.00 0.00 0.00 88 1014.4
20260509021804 15 0 0.0 0.0 0.00 0.00 0.00 88 1014.4
20260509020906 15 0 0.0 0.0 0.00 0.00 0.00 88 1014.3
20260509020005 16 120 0.0 1.6 0.00 0.00 0.00 88 1014.3
20260509015404 16 120 0.0 1.6 0.00 0.00 0.00 87 1014.3
20260509014505 16 0 0.0 0.0 0.00 0.00 0.00 87 1014.4
20260509013605 16 121 0.0 1.6 0.00 0.00 0.00 87 1014.2
20260509012705 16 0 0.0 0.0 0.00 0.00 0.00 86 1014.3
20260509011805 16 0 0.0 0.0 0.00 0.00 0.00 86 1014.1
20260509010905 16 0 0.0 0.0 0.00 0.00 0.00 86 1014.0
20260509010005 16 0 0.0 0.0 0.00 0.00 0.00 87 1014.0
20260509005405 16 0 0.0 0.0 0.00 0.00 0.00 86 1013.9
20260509004535 16 0 0.0 0.0 0.00 0.00 0.00 85 1013.8
20260509003626 16 0 0.0 0.0 0.00 0.00 0.00 84 1013.9
20260509002704 16 0 0.0 0.0 0.00 0.00 0.00 84 1014.1
20260509001804 17 116 0.0 1.6 0.00 0.00 0.00 85 1014.0
20260509000925 17 0 0.0 0.0 0.00 0.00 0.00 85 1013.8
20260509000004 17 0 0.0 0.0 0.00 0.00 0.00 83 1013.6
20260508235405 17 0 0.0 0.0 0.00 0.00 0.00 82 1013.5
20260508234504 17 0 0.0 0.0 0.00 0.00 0.00 79 1013.5
20260508233604 18 115 0.0 1.6 0.00 0.00 0.00 80 1013.2
20260508232704 18 115 0.0 1.6 0.00 0.00 0.00 75 1013.5
20260508231805 18 0 0.0 0.0 0.00 0.00 0.00 77 1013.4
20260508230904 19 0 0.0 0.0 0.00 0.00 0.00 76 1013.5
20260508230004 19 0 0.0 0.0 0.00 0.00 0.00 76 1013.5
20260508225439 19 0 0.0 0.0 0.00 0.00 0.00 77 1013.7
20260508224505 20 0 0.0 0.0 0.00 0.00 0.00 73 1013.7
20260508223626 20 115 0.0 1.6 0.00 0.00 0.00 77 1013.5
20260508222735 20 0 0.0 0.0 0.00 0.00 0.00 76 1013.7
20260508221804 20 0 0.0 0.0 0.00 0.00 0.00 71 1013.6
20260508220905 21 0 0.0 0.0 0.00 0.00 0.00 70 1013.7
20260508220034 21 115 0.0 1.6 0.00 0.00 0.00 60 1013.5
20260508215426 21 118 0.0 1.6 0.00 0.00 0.00 63 1013.4
20260508214505 22 126 0.0 1.6 0.00 0.00 0.00 62 1013.6
20260508213605 22 223 0.0 1.6 0.00 0.00 0.00 61 1013.8
20260508212704 22 164 0.0 1.6 0.00 0.00 0.00 54 1013.8
20260508211804 22 141 0.0 1.6 0.00 0.00 0.00 55 1013.8
20260508210905 22 133 0.0 1.6 0.00 0.00 0.00 56 1013.8
20260508210005 22 123 0.0 4.8 0.00 0.00 0.00 55 1013.5
20260508205404 22 270 0.0 6.4 0.00 0.00 0.00 53 1013.6
20260508204504 21 258 1.6 6.4 0.00 0.00 0.00 56 1013.6
20260508203623 21 292 3.2 6.4 0.00 0.00 0.00 55 1013.8
20260508202704 21 307 3.2 9.7 0.00 0.00 0.00 53 1013.9
20260508201827 21 289 4.8 11.3 0.00 0.00 0.00 53 1014.2
20260508200914 22 280 1.6 9.7 0.00 0.00 0.00 50 1014.3
20260508200005 22 161 1.6 4.8 0.00 0.00 0.00 50 1014.2
20260508195404 22 215 1.6 6.4 0.00 0.00 0.00 51 1014.2
20260508194505 22 126 1.6 6.4 0.00 0.00 0.00 50 1014.3
20260508193605 22 113 3.2 9.7 0.00 0.00 0.00 50 1014.3
20260508192704 23 86 1.6 9.7 0.00 0.00 0.00 51 1014.5
20260508191842 23 121 1.6 6.4 0.00 0.00 0.00 51 1014.7
20260508190904 22 199 1.6 6.4 0.00 0.00 0.00 50 1014.9
20260508190005 23 163 1.6 6.4 0.00 0.00 0.00 50 1015.0
20260508185404 22 231 1.6 6.4 0.00 0.00 0.00 52 1015.1
20260508184505 22 207 1.6 8.0 0.00 0.00 0.00 48 1015.2
20260508183605 22 245 3.2 12.9 0.00 0.00 0.00 52 1015.3
20260508182704 22 258 1.6 9.7 0.00 0.00 0.00 52 1015.5
20260508181806 22 212 1.6 6.4 0.00 0.00 0.00 51 1015.5
20260508180926 22 264 3.2 8.0 0.00 0.00 0.00 54 1015.6
20260508180008 22 161 3.2 8.0 0.00 0.00 0.00 57 1015.6
20260508175422 22 56 1.6 8.0 0.00 0.00 0.00 51 1015.8
20260508174505 22 143 3.2 9.7 0.00 0.00 0.00 53 1016.0
20260508173605 21 207 3.2 9.7 0.00 0.00 0.00 58 1016.1
20260508172705 22 141 4.8 14.5 0.00 0.00 0.00 55 1016.1
20260508171805 22 161 3.2 9.7 0.00 0.00 0.00 55 1016.2
20260508170905 22 157 1.6 9.7 0.00 0.00 0.00 55 1016.2
20260508170020 21 160 3.2 9.7 0.00 0.00 0.00 56 1016.5
20260508165426 21 130 3.2 9.7 0.00 0.00 0.00 55 1016.6
20260508164504 21 34 1.6 9.7 0.00 0.00 0.00 57 1016.8
20260508163604 20 41 4.8 12.9 0.00 0.00 0.00 58 1016.9
20260508162704 20 75 3.2 12.9 0.00 0.00 0.00 57 1017.1
20260508161804 20 94 3.2 9.7 0.00 0.00 0.00 58 1017.2
20260508160905 20 178 1.6 11.3 0.00 0.00 0.00 61 1017.3
20260508160025 20 174 3.2 8.0 0.00 0.00 0.00 61 1017.3
20260508155405 20 157 3.2 8.0 0.00 0.00 0.00 61 1017.4
20260508154504 20 134 3.2 9.7 0.00 0.00 0.00 59 1017.6
20260508153644 20 97 3.2 12.9 0.00 0.03 0.00 63 1017.6
20260508152704 20 110 3.2 11.3 0.00 0.10 0.00 59 1017.8
20260508151804 20 98 1.6 8.0 0.00 0.13 0.00 62 1017.7
20260508150905 19 97 1.6 11.3 0.00 0.13 0.00 67 1017.6
20260508150005 18 82 3.2 11.3 0.00 0.13 0.00 65 1017.5
20260508145427 18 91 3.2 11.3 0.00 0.15 0.00 65 1017.5
20260508144504 18 102 3.2 11.3 0.00 0.15 0.00 65 1017.6
20260508143625 18 107 3.2 8.0 0.00 0.18 0.00 65 1017.6
20260508142704 17 82 3.2 9.7 0.00 0.23 0.00 67 1017.8
20260508141825 17 60 3.2 9.7 0.00 0.23 0.00 72 1017.7
20260508140922 17 92 3.2 8.0 0.00 0.25 0.00 72 1017.9
20260508140005 17 106 1.6 11.3 0.00 0.28 0.00 77 1017.9
20260508135404 16 110 1.6 11.3 0.00 0.48 0.00 77 1017.9
20260508134505 16 74 1.6 8.0 0.00 0.76 0.00 81 1017.7
20260508133604 16 65 1.6 4.8 0.00 1.02 0.00 84 1017.7
20260508132704 15 157 0.0 4.8 0.00 1.14 0.00 92 1017.8
20260508131805 15 36 0.0 1.6 0.00 1.22 0.00 94 1017.7
20260508130928 14 29 0.0 4.8 0.00 1.27 0.00 96 1017.5
20260508130005 14 13 0.0 3.2 0.00 1.42 0.00 97 1017.4
20260508125427 14 4 0.0 3.2 0.00 1.47 0.00 97 1017.4
20260508124504 13 293 0.0 1.6 0.00 1.60 0.00 97 1017.1
20260508123625 13 317 0.0 1.6 0.00 1.68 0.00 97 1017.1
20260508122704 13 332 0.0 1.6 0.00 1.85 0.00 97 1017.0
20260508121805 12 0 0.0 0.0 0.00 2.13 0.00 97 1016.9
20260508120905 12 0 0.0 0.0 0.00 2.26 0.00 97 1016.8
20260508120004 12 0 0.0 0.0 0.00 2.26 0.00 97 1016.9
20260508115405 11 0 0.0 0.0 0.00 2.26 0.00 97 1016.8
20260508114525 11 0 0.0 0.0 0.00 2.26 0.00 96 1016.7
20260508113606 11 0 0.0 0.0 0.00 2.26 0.00 96 1016.5
20260508112706 11 0 0.0 0.0 0.00 2.26 0.00 96 1016.2
20260508111804 11 0 0.0 0.0 0.00 2.26 0.00 96 1016.0
20260508110926 11 0 0.0 0.0 0.00 2.29 0.00 96 1015.7
20260508110006 11 0 0.0 0.0 0.00 2.31 0.00 96 1015.6
20260508105404 11 0 0.0 0.0 0.00 2.34 0.00 96 1015.5
20260508104504 11 0 0.0 0.0 0.00 2.39 0.00 96 1015.4
20260508103609 11 0 0.0 0.0 0.00 2.44 0.00 96 1015.3
20260508102725 11 0 0.0 0.0 0.00 2.46 0.00 96 1015.1
20260508101806 11 0 0.0 0.0 0.00 2.46 0.00 96 1015.1
20260508100925 11 0 0.0 0.0 0.00 2.49 0.00 96 1014.9
20260508100006 11 0 0.0 0.0 0.00 2.54 0.00 96 1014.7
20260508095404 11 0 0.0 0.0 0.00 2.54 0.00 96 1014.6
20260508094517 11 0 0.0 0.0 0.00 2.62 0.00 96 1014.5
20260508093640 11 0 0.0 0.0 0.00 2.62 0.00 95 1014.6
20260508092705 11 0 0.0 0.0 0.00 2.62 0.00 96 1014.5
20260508091804 11 0 0.0 0.0 0.00 2.62 0.00 95 1014.4
20260508090904 11 0 0.0 0.0 0.00 2.62 0.00 95 1014.3
20260508090005 11 0 0.0 0.0 0.00 2.62 0.00 95 1014.1
20260508085405 11 0 0.0 0.0 0.00 2.62 0.00 95 1014.2
20260508084532 11 0 0.0 0.0 0.00 2.64 0.00 95 1014.3
20260508083604 11 0 0.0 0.0 0.00 2.67 0.00 95 1014.2
20260508082705 12 0 0.0 0.0 0.00 2.67 0.00 95 1014.3
20260508081805 12 0 0.0 0.0 0.00 2.67 0.00 95 1014.2
20260508080906 12 0 0.0 0.0 0.00 2.67 0.00 95 1014.1
20260508080005 12 0 0.0 0.0 0.00 2.69 0.00 95 1013.9
20260508075404 12 0 0.0 0.0 0.00 2.69 0.00 95 1013.9
20260508074517 12 0 0.0 0.0 0.00 2.69 0.00 94 1014.1
20260508073606 12 0 0.0 0.0 0.00 2.69 0.00 94 1014.1
20260508072704 12 0 0.0 0.0 0.00 2.69 0.00 94 1014.0
20260508071807 12 0 0.0 0.0 0.00 2.69 0.00 94 1013.9
20260508070904 13 0 0.0 0.0 0.00 2.69 0.00 94 1013.9
20260508070005 13 0 0.0 0.0 0.00 2.72 0.00 93 1013.9
20260508065425 13 0 0.0 0.0 0.00 2.72 0.00 93 1013.9
20260508064519 13 0 0.0 0.0 0.00 2.72 0.00 93 1013.7
20260508063625 13 0 0.0 0.0 0.00 2.72 0.00 91 1013.7
20260508062705 13 0 0.0 0.0 0.00 2.72 0.00 91 1013.6
20260508061847 13 0 0.0 0.0 0.00 2.72 0.00 91 1013.4
20260508060905 14 0 0.0 0.0 0.00 2.72 0.00 91 1013.5
20260508060005 14 0 0.0 0.0 0.00 2.72 0.00 90 1013.6
20260508055405 14 0 0.0 0.0 0.00 2.72 0.00 90 1013.6
20260508054505 15 301 0.0 1.6 0.00 2.72 0.00 89 1013.7
20260508053625 15 274 0.0 1.6 0.00 2.72 0.00 89 1013.7
20260508052704 15 0 0.0 0.0 0.00 2.72 0.00 90 1014.0
20260508051825 15 0 0.0 0.0 0.00 2.72 0.00 89 1014.0
20260508050905 15 0 0.0 0.0 0.00 2.72 0.00 88 1013.6
20260508050026 15 274 0.0 1.6 0.00 2.72 0.00 87 1013.7
20260508045404 15 274 0.0 1.6 0.00 2.72 0.00 87 1013.5
20260508044524 15 0 0.0 0.0 0.00 2.72 0.00 88 1013.5
20260508043605 15 0 0.0 0.0 0.00 2.74 0.00 89 1013.5
20260508042704 15 0 0.0 0.0 0.00 2.74 0.00 89 1013.4
20260508041804 15 0 0.0 0.0 0.00 2.74 0.00 90 1013.3
20260508040904 15 277 0.0 1.6 0.00 2.74 0.00 88 1013.3
20260508040025 15 0 0.0 0.0 0.00 2.77 0.00 88 1013.2
20260508035404 16 0 0.0 0.0 0.00 2.84 2.77 87 1013.2
20260508034525 16 0 0.0 0.0 0.00 2.90 2.77 85 1013.2
20260508033604 16 318 0.0 8.0 0.00 3.02 2.77 84 1013.2
20260508032704 17 287 0.0 8.0 0.00 3.25 2.77 84 1013.0
20260508031804 17 286 1.6 6.4 0.00 3.43 2.77 83 1012.9
20260508030906 17 289 3.2 8.0 0.00 3.51 2.77 82 1012.8
20260508030004 17 283 1.6 6.4 0.00 3.61 2.77 82 1012.6
20260508025404 17 275 1.6 8.0 0.00 3.68 2.77 82 1012.7